Regional Weather Roundup
Issued by NWS

Home | Current Version | Previous Version | Graphics & Text | Print | Product List | Glossary On
Versions: 1 2 3 4 5 6 7 8 9 10 11 12 13 14 15 16 17 18 19 20 21 22 23 24 25 26 27 28 29 30 31 32 33 34 35 36 37 38 39 40 41 42 43 44 45 46 47 48 49 50
000
ASUS43 KMPX 031401
RWRMN
WEATHER ROUNDUP FOR MINNESOTA
NATIONAL WEATHER SERVICE TWIN CITIES/CHANHASSEN MN
900 AM CDT WED JUN 03 2015


NOTE: "FAIR" INDICATES FEW OR NO CLOUDS BELOW 12,000 FEET WITH NO
SIGNIFICANT WEATHER AND/OR OBSTRUCTIONS TO VISIBILITY. N/A MEANS
CURRENT SKY AND/OR WEATHER CONDITIONS ARE NOT AVAILABLE.

MNZ060>063-068>070-031500-
   Twin Cities Metro

CITY           SKY/WX    TMP DP  RH WIND       PRES   REMARKS
TWIN CITIES    LGT RAIN  62  59  90 E9        29.86S
ST PAUL        LGT RAIN  63  57  81 SE9       29.87S
CRYSTAL        CLOUDY    65  57  75 S9        29.85R
BLAINE         CLOUDY    66  57  72 S10       29.87R
LAKEVILLE      LGT RAIN  61  57  88 S10G16    29.85F
EDEN PRAIRIE   CLOUDY    63  58  83 SE10      29.84S
SOUTH ST PAUL  LGT RAIN  64  56  76 S6        29.87R
LAKE ELMO      PTSUNNY   64  57  77 SE8       29.88F
$$
MNZ001>005-007-008-013>017-022>024-027-028-031500-
   Northwest Minnesota

CITY           SKY/WX    TMP DP  RH WIND       PRES   REMARKS
BEMIDJI        PTSUNNY   60  58  92 E8        29.79S
HALLOCK        CLOUDY    54  48  82 N12       29.85R
ROSEAU         CLOUDY    59  54  82 NE14      29.83F HAZE
WARROAD        FOG       57  54  88 NE13G20   29.85F VSB 1/4
THIEF RVR FALL CLOUDY    61  57  88 NE13      29.80R
CROOKSTON      CLOUDY    63  61  94 N7        29.80R
FOSSTON        CLOUDY    63  61  94 CALM      29.79R
DETROIT LAKES  CLOUDY    64  61  88 S5        29.78R
MOORHEAD       CLOUDY    63  59  88 NW15      29.77S
PARK RAPIDS    CLOUDY    65  57  75 S12       29.79R
MAHNOMEN       CLOUDY    63  59  87 SE6       29.76R
$$
MNZ006-009>011-018-025>026-031500-
   North Central Minnesota

CITY           SKY/WX    TMP DP  RH WIND       PRES   REMARKS
BAUDETTE       CLOUDY    61  58  90 NE6       29.83R
FLAG ISLAND    CLOUDY    57  55  94 NE6       29.86R
INTL FALLS     CLOUDY    60  57  89 E3        29.84F
WASKISH        PTSUNNY   63  61  94 E7        29.80F
BIG FORK       PTSUNNY   64  59  82 SE5       29.83S
LONGVILLE      CLOUDY    63  57  82 SE6       29.81S
GRAND RAPIDS     N/A     61  55  82 SE7       29.83F
CRANE LAKE     CLOUDY    59  57  94 CALM      29.87S
ORR            MOSUNNY   63  55  77 S7        29.82F
COOK           MOSUNNY   63  57  82 S7        29.85F
WALKER         CLOUDY    61  57  88 SE3       29.79S
$$
MNZ012-019>021-037-031500-
   Northeast Minnesota

CITY           SKY/WX    TMP DP  RH WIND       PRES   REMARKS
DULUTH         CLOUDY    57  51  80 E9        29.88R
ELY            PTSUNNY   61  55  82 S6        29.87F
HIBBING        CLOUDY    59  56  89 SE6       29.85S
EVELETH        CLOUDY    57  54  88 E3        29.87S
DULUTH HARBOR  CLOUDY    48  46  93 N14       29.89S
TWO HARBORS    CLOUDY    61  55  82 NE5       29.88S
SILVER BAY     PTSUNNY   57  55  94 NE3       29.88F
GRAND MARAIS     N/A     46  43  89 CALM      29.91R
G MARAIS ARPRT CLOUDY    54  50  87 S7        29.93S FOG
$$
MNZ029>031-032-039>041-046>048-054>057-064-031500-
   West Central Minnesota

CITY           SKY/WX    TMP DP  RH WIND       PRES   REMARKS
FERGUS FALLS   FOG       61  61 100 W10       29.79R VSB 1
WHEATON        CLOUDY    63  61  94 NW13      29.79S FOG
MORRIS         CLOUDY    66  61  82 SE7       29.76S
ALEXANDRIA     CLOUDY    64  59  83 S14       29.80R
ELBOW LAKE     CLOUDY    64  60  87 W13       29.77S
WADENA         CLOUDY    64  57  77 S9        29.78R
GLENWOOD       CLOUDY    63  59  88 S9        29.79F
APPLETON       LGT RAIN  64  61  88 SW3       29.76R
BENSON         CLOUDY    64  59  82 SW5       29.77F
ORTONVILLE     CLOUDY    66  63  88 NW5       29.76R
MADISON        CLOUDY    66  63  88 NW5G10    29.77R
WILLMAR        FAIR      68  61  77 S5        29.80S
$$
MNZ033>034-036-042>043-049>051-058-059-031500-
   Central Minnesota

CITY           SKY/WX    TMP DP  RH WIND       PRES   REMARKS
ST CLOUD       CLOUDY    66  58  75 S12       29.80F
SAUK CENTRE    RAIN      62  59  88 SE8       29.78F
PAYNESVILLE    CLOUDY    63  57  82 SE9       29.81R
AITKIN         CLOUDY    64  57  77 S9        29.81S
PINE RIVER     CLOUDY    63  57  82 SE7       29.84R
BRAINERD       CLOUDY    64  58  80 S10       29.81S
STAPLES        CLOUDY    64  57  77 S9G16     29.79S
LONG PRAIRIE   CLOUDY    63  57  82 SE15      29.80S
LITTLE FALLS   CLOUDY    64  55  72 S7        29.80F
LITCHFIELD     CLOUDY    66  61  82 SE8       29.82S
BUFFALO        CLOUDY    64  57  77 SE8       29.84F
MAPLE LAKE     CLOUDY    66  59  79 S8G16     29.83F
$$
MNZ037-044-045-052-053-031500-
   East Central Minnesota

CITY           SKY/WX    TMP DP  RH WIND       PRES   REMARKS
PRINCETON      CLOUDY    68  57  68 SE12      29.82F
MORA           CLOUDY    64  55  72 S8        29.85F
CAMBRIDGE      CLOUDY    68  55  64 SE7       29.82F
RUSH CITY      CLOUDY    65  56  74 S13       29.86S
MOOSE LAKE     CLOUDY    63  54  72 S3        29.84R
HINCKLEY       CLOUDY    64  57  77 S10G16    29.85S
CLOQUET        CLOUDY    55  52  88 E3        29.86F
MCGREGOR       CLOUDY    61  55  82 SE7       29.84S
$$
MNZ071>073-080-081-089-090-097-098-031500-
   Southwest Minnesota

CITY           SKY/WX    TMP DP  RH WIND       PRES   REMARKS
MONTEVIDEO     CLOUDY    66  61  82 S6        29.78S
GRANITE FALLS  CLOUDY    64  59  83 SE6       29.79F
CANBY          CLOUDY    66  64  93 S5        29.79S
MARSHALL       CLOUDY    64  57  77 SW9       29.79R
REDWOOD FALLS  CLOUDY    67  58  72 SE12      29.78F
OLIVIA         CLOUDY    63  55  77 SE9       29.78F
PIPESTONE      CLOUDY    64  59  82 N23G40    29.77F
WINDOM         PTSUNNY   63  57  82 SE13      29.82R
WORTHINGTON    CLOUDY    63  57  82 S13       29.83R
JACKSON        CLOUDY    63  59  88 S14       29.85R
TRACY          CLOUDY    65  61  85 SW8       29.80R
SLAYTON        LGT RAIN  63  60  92 S12       29.83R
$$
MNZ065>067-074>077-082>085-091>093-031500-
   South Central Minnesota

CITY           SKY/WX    TMP DP  RH WIND       PRES   REMARKS
MANKATO        CLOUDY    64  57  77 SE20      29.84F
NEW ULM        CLOUDY    64  57  77 SE12      29.81F
ST JAMES       CLOUDY    66  61  82 SE14G21   29.82S
FAIRMONT       CLOUDY    63  54  72 S20       29.84R
GLENCOE        CLOUDY    66  60  80 SE10G17   29.82F
FARIBAULT      LGT RAIN  61  57  88 SE14      29.87F
OWATONNA       CLOUDY    61  57  88 SE16G23   29.88F
WASECA         CLOUDY    63  57  82 SE12      29.88F
ALBERT LEA     CLOUDY    64  55  72 S13       29.87F
$$
MNZ078>079-086>088-094>096-031500-
   Southeast Minnesota

CITY           SKY/WX    TMP DP  RH WIND       PRES   REMARKS
ROCHESTER      CLOUDY    65  55  70 S23G30    29.94R
RED WING         N/A     64  54  68 S13G18    29.90R
STANTON        CLOUDY    63  56  79 S16       29.86F
DODGE CENTER   CLOUDY    64  55  72 S16G22    29.90F
WINONA         CLOUDY    66  55  68 SE8       29.94S
AUSTIN         CLOUDY    63  55  77 S13G24    29.89F
PRESTON        CLOUDY    64  55  72 S18G25    29.94F
$$
ABBREVIATIONS USED IN REMARKS
   TC - TEMPERATURES IN CELSIUS
  WCI - WIND CHILL INDEX
   HX - HEAT INDEX
  VSB - VISIBILITY
$$


USA.gov is the U.S. government's official web portal to all federal, state and local government web resources and services.